Home   Weather   Thiruvananthapuram   Past weeks

Flag for India Past Weather in Thiruvananthapuram, Kerala, India — Yesterday and Last 2 Weeks

Now
82 °F

Haze.


Feels Like: 83 °F
Forecast: 78 / 87 °F
Wind: 6 mph from Northeast

Location: Thiruvananthapuram

Current Time: Jan 25, 2017 at 2:59:19 am

Latest Report: Jan 25, 2017 at 2:30 am


Visibility: 2 mi

Pressure: 29.86 "Hg

Humidity: 48%

Dew Point: 61 °F

Location of ThiruvananthapuramLocation

Past Weather in Thiruvananthapuram — Graph

°F

Thiruvananthapuram Temperature Yesterday

Maximum temperature yesterday: 88 °F (at 10:00 am)
Minimum temperature yesterday: 75 °F (at 6:00 am)
Average temperature yesterday: 83 °F

High & Low Weather Summary for the Past Weeks

 TemperatureHumidityPressure
High90 °F (Jan 14, 11:00 am)94% (Jan 23, 3:30 am)29.98 "Hg (Jan 23, 3:30 am)
Low72 °F (Jan 19, 6:00 am)31% (Jan 23, 10:30 am)29.74 "Hg (Jan 12, 3:30 pm)
Average82 °F65%29.86 "Hg
* Reported Jan 10 1:30 am — Jan 25 1:30 am, Thiruvananthapuram, Weather by CustomWeather, © 2017

Note: Actual official high and low records may vary slightly from our data, if they occured in-between our weather recording intervals... More about our weather records

Advertising

Thiruvananthapuram Weather History for the Previous 24 Hours

Scroll right to see more
 ConditionsComfort  
Time TempWeatherWind HumidityBarometerVisibility
1:30 am
Wed, Jan 25
82 °FHaze.9 mph51%29.86 "Hg2 mi
1:00 am84 °FPassing clouds.7 mph55%29.89 "Hg2 mi
12:30 am84 °FPassing clouds.5 mph70%29.89 "Hg2 mi
12:00 am84 °FPartly cloudy.6 mph70%29.89 "Hg2 mi
11:30 pm
Tue, Jan 24
84 °FPartly cloudy.3 mph66%29.89 "Hg2 mi
11:00 pm84 °FPartly cloudy.No wind70%29.89 "Hg2 mi
10:30 pm84 °FPassing clouds.3 mph70%29.89 "Hg2 mi
9:30 pm84 °FPassing clouds.2 mph70%29.89 "Hg2 mi
9:00 pm84 °FPassing clouds.5 mph70%29.89 "Hg2 mi
8:30 pm84 °FPassing clouds.5 mph70%29.89 "Hg2 mi
8:00 pm84 °FPassing clouds.5 mph70%29.86 "Hg3 mi
7:30 pm84 °FPassing clouds.5 mph70%29.86 "Hg3 mi
7:00 pm84 °FPassing clouds.5 mph70%29.86 "Hg3 mi
6:30 pm84 °FBroken clouds.5 mph70%29.83 "Hg3 mi
6:00 pm86 °FScattered clouds.5 mph66%29.83 "Hg4 mi
5:30 pm88 °FScattered clouds.5 mph62%29.83 "Hg4 mi
5:00 pm88 °FScattered clouds.7 mph62%29.80 "Hg4 mi
4:30 pm88 °FScattered clouds.7 mph62%29.80 "Hg4 mi
4:00 pm88 °FScattered clouds.8 mph66%29.80 "Hg4 mi
3:30 pm88 °FPassing clouds.7 mph62%29.80 "Hg4 mi
3:00 pm88 °FPassing clouds.7 mph59%29.80 "Hg4 mi
2:30 pm88 °FPassing clouds.7 mph55%29.80 "Hg4 mi
2:00 pm88 °FPassing clouds.7 mph55%29.80 "Hg4 mi
1:30 pm88 °FPassing clouds.8 mph55%29.83 "Hg4 mi
1:00 pm88 °FPassing clouds.8 mph52%29.86 "Hg4 mi
12:30 pm88 °FPassing clouds.7 mph49%29.86 "Hg4 mi
12:00 pm88 °FPassing clouds.7 mph46%29.89 "Hg4 mi
11:30 am88 °FScattered clouds.6 mph40%29.89 "Hg3 mi
11:00 am88 °FScattered clouds.5 mph43%29.92 "Hg3 mi
10:30 am86 °FScattered clouds.5 mph43%29.92 "Hg2 mi
10:00 am88 °FScattered clouds.5 mph35%29.92 "Hg2 mi
9:30 am84 °FScattered clouds.3 mph43%29.92 "Hg2 mi
9:00 am81 °FScattered clouds.3 mph66%29.92 "Hg1 mi
8:30 am79 °FScattered clouds.1 mph70%29.92 "Hg1 mi
8:00 am77 °FScattered clouds.2 mph69%29.89 "Hg1 mi
7:30 am77 °FScattered clouds.3 mph69%29.89 "Hg2 mi
7:00 am75 °FPassing clouds.2 mph74%29.86 "Hg2 mi
6:30 am75 °FPassing clouds.2 mph74%29.83 "Hg2 mi
6:00 am75 °FPassing clouds.No wind78%29.83 "Hg2 mi
5:30 am77 °FPassing clouds.No wind74%29.83 "Hg2 mi
5:00 am77 °FPassing clouds.No wind74%29.80 "Hg2 mi
4:30 am77 °FPassing clouds.No wind74%29.80 "Hg2 mi
4:00 am79 °FPassing clouds.No wind70%29.83 "Hg2 mi
3:30 am79 °FPassing clouds.No wind70%29.83 "Hg2 mi
3:00 am79 °FPassing clouds.3 mph70%29.83 "Hg2 mi
2:30 am79 °FPassing clouds.No wind74%29.83 "Hg2 mi
2:00 am79 °FPassing clouds.No wind74%29.86 "Hg2 mi
Weather by CustomWeather, © 2017

See weather overviewHow to use our weather pages